TimeMST,TemperatureF,Dew PointF,Humidity,Sea Level PressureIn,VisibilityMPH,Wind Direction,Wind SpeedMPH,Gust SpeedMPH,PrecipitationIn,Events,Conditions,WindDirDegrees,DateUTC
12:15 AM,39.2,-4.0,16,30.18,10.0,SW,11.5,-,N/A,,Clear,220,2013-01-24 07:15:00
12:35 AM,41.0,-2.2,16,30.18,10.0,West,10.4,-,N/A,,Clear,260,2013-01-24 07:35:00
12:55 AM,44.6,-4.0,13,30.17,10.0,Calm,Calm,-,N/A,,Clear,0,2013-01-24 07:55:00
1:15 AM,44.6,-4.0,13,30.16,10.0,SSW,10.4,16.1,N/A,,Clear,210,2013-01-24 08:15:00
1:35 AM,42.8,-0.4,16,30.15,10.0,SSW,10.4,-,N/A,,Clear,200,2013-01-24 08:35:00
1:54 AM,46.4,-2.2,13,30.14,10.0,SW,16.1,-,N/A,,Clear,220,2013-01-24 08:54:00
2:15 AM,46.4,-4.0,12,30.14,10.0,SW,13.8,-,N/A,,Clear,220,2013-01-24 09:15:00
2:35 AM,44.6,-2.2,14,30.15,10.0,SW,9.2,-,N/A,,Clear,220,2013-01-24 09:35:00
2:55 AM,44.6,-2.2,14,30.14,10.0,WSW,13.8,-,N/A,,Clear,240,2013-01-24 09:55:00
3:15 AM,41.0,-0.4,18,30.14,10.0,West,8.1,-,N/A,,Clear,260,2013-01-24 10:15:00
3:35 AM,44.6,-4.0,13,30.13,10.0,WSW,9.2,-,N/A,,Clear,240,2013-01-24 10:35:00
3:55 AM,41.0,-2.2,16,30.12,10.0,SW,5.8,-,N/A,,Clear,230,2013-01-24 10:55:00
4:15 AM,41.0,-2.2,16,30.12,10.0,WSW,6.9,-,N/A,,Clear,240,2013-01-24 11:15:00
4:35 AM,41.0,-4.0,15,30.11,10.0,SW,11.5,-,N/A,,Clear,230,2013-01-24 11:35:00
4:55 AM,41.0,-4.0,15,30.11,10.0,WSW,12.7,-,N/A,,Clear,240,2013-01-24 11:55:00
5:15 AM,39.2,-4.0,16,30.11,10.0,WSW,10.4,-,N/A,,Clear,240,2013-01-24 12:15:00
5:34 AM,37.4,-4.0,17,30.11,10.0,WSW,9.2,-,N/A,,Clear,240,2013-01-24 12:34:00
5:55 AM,41.0,-5.8,14,30.11,10.0,SW,11.5,-,N/A,,Clear,230,2013-01-24 12:55:00
6:15 AM,41.0,-5.8,14,30.11,10.0,SW,12.7,-,N/A,,Clear,230,2013-01-24 13:15:00
6:34 AM,41.0,-5.8,14,30.11,10.0,WSW,10.4,-,N/A,,Clear,240,2013-01-24 13:34:00
6:55 AM,39.2,-4.0,16,30.10,10.0,WSW,11.5,-,N/A,,Clear,240,2013-01-24 13:55:00
7:15 AM,37.4,-4.0,17,30.11,10.0,SW,10.4,-,N/A,,Clear,230,2013-01-24 14:15:00
7:35 AM,42.8,-5.8,13,30.10,10.0,WSW,11.5,-,N/A,,Clear,240,2013-01-24 14:35:00
7:55 AM,42.8,-4.0,14,30.11,10.0,WSW,13.8,-,N/A,,Clear,240,2013-01-24 14:55:00
8:15 AM,44.6,-4.0,13,30.11,10.0,WSW,13.8,-,N/A,,Clear,240,2013-01-24 15:15:00
8:35 AM,44.6,-4.0,13,30.11,10.0,West,11.5,-,N/A,,Clear,260,2013-01-24 15:35:00
8:55 AM,46.4,-2.2,13,30.12,10.0,WSW,9.2,-,N/A,,Clear,250,2013-01-24 15:55:00
9:15 AM,46.4,-4.0,12,30.10,10.0,SW,9.2,18.4,N/A,,Clear,230,2013-01-24 16:15:00
9:35 AM,48.2,-4.0,11,30.09,10.0,SW,13.8,-,N/A,,Clear,230,2013-01-24 16:35:00
9:55 AM,48.2,-4.0,11,30.10,10.0,SW,11.5,-,N/A,,Clear,230,2013-01-24 16:55:00
10:15 AM,50.0,-4.0,11,30.10,10.0,SW,12.7,-,N/A,,Clear,230,2013-01-24 17:15:00
10:34 AM,50.0,-2.2,12,30.08,10.0,WSW,11.5,-,N/A,,Clear,250,2013-01-24 17:34:00
10:54 AM,51.8,-0.4,12,30.07,10.0,SW,13.8,17.3,N/A,,Clear,220,2013-01-24 17:54:00
11:15 AM,51.8,1.4,13,30.08,10.0,SW,5.8,-,N/A,,Clear,230,2013-01-24 18:15:00
11:35 AM,55.4,1.4,11,30.06,10.0,SW,10.4,-,N/A,,Clear,220,2013-01-24 18:35:00
11:55 AM,59.0,5.0,12,30.05,10.0,SW,10.4,17.3,N/A,,Clear,220,2013-01-24 18:55:00
12:14 PM,59.0,8.6,14,30.05,10.0,West,11.5,18.4,N/A,,Clear,270,2013-01-24 19:14:00
12:34 PM,60.8,10.4,14,30.04,10.0,West,12.7,20.7,N/A,,Clear,260,2013-01-24 19:34:00
12:54 PM,59.0,10.4,15,30.03,10.0,WSW,9.2,-,N/A,,Clear,250,2013-01-24 19:54:00
1:14 PM,59.0,10.4,15,30.02,10.0,West,8.1,-,N/A,,Clear,280,2013-01-24 20:14:00
1:35 PM,59.0,10.4,15,30.01,10.0,WNW,9.2,-,N/A,,Clear,300,2013-01-24 20:35:00
1:55 PM,59.0,10.4,15,30.01,10.0,Calm,Calm,-,N/A,,Clear,0,2013-01-24 20:55:00
2:15 PM,57.2,10.4,16,30.01,10.0,North,10.4,-,N/A,,Clear,10,2013-01-24 21:15:00
2:35 PM,55.4,8.6,15,30.02,10.0,NE,6.9,-,N/A,,Clear,40,2013-01-24 21:35:00
2:55 PM,55.4,10.4,17,30.03,10.0,NNE,4.6,-,N/A,,Scattered Clouds,20,2013-01-24 21:55:00
3:15 PM,55.4,12.2,18,30.03,10.0,NNE,3.5,-,N/A,,Mostly Cloudy,20,2013-01-24 22:15:00
3:35 PM,55.4,10.4,17,30.03,10.0,North,6.9,-,N/A,,Scattered Clouds,10,2013-01-24 22:35:00
3:55 PM,53.6,5.0,14,30.03,10.0,East,9.2,18.4,N/A,,Scattered Clouds,80,2013-01-24 22:55:00
4:15 PM,50.0,1.4,14,30.04,10.0,SE,4.6,-,N/A,,Mostly Cloudy,130,2013-01-24 23:15:00
4:35 PM,50.0,-0.4,13,30.05,10.0,ESE,4.6,-,N/A,,Scattered Clouds,110,2013-01-24 23:35:00
4:55 PM,46.4,-0.4,14,30.05,10.0,East,4.6,-,N/A,,Clear,100,2013-01-24 23:55:00
5:15 PM,44.6,-0.4,15,30.07,10.0,Calm,Calm,-,N/A,,Clear,0,2013-01-25 00:15:00
5:35 PM,41.0,-0.4,18,30.07,10.0,SE,6.9,-,N/A,,Clear,140,2013-01-25 00:35:00
5:55 PM,42.8,-0.4,16,30.09,10.0,Calm,Calm,-,N/A,,Clear,0,2013-01-25 00:55:00
6:15 PM,44.6,10.4,25,30.09,10.0,NNW,3.5,-,N/A,,Clear,330,2013-01-25 01:15:00
6:35 PM,44.6,14.0,29,30.10,10.0,NW,8.1,-,N/A,,Clear,320,2013-01-25 01:35:00
6:55 PM,42.8,19.4,39,30.11,10.0,NW,9.2,-,N/A,,Clear,320,2013-01-25 01:55:00
7:15 PM,42.8,19.4,39,30.12,10.0,NNW,6.9,-,N/A,,Clear,330,2013-01-25 02:15:00
7:35 PM,42.8,19.4,39,30.11,10.0,North,3.5,-,N/A,,Clear,350,2013-01-25 02:35:00
7:55 PM,41.0,15.8,36,30.12,10.0,NE,4.6,-,N/A,,Clear,40,2013-01-25 02:55:00
8:15 PM,41.0,10.4,29,30.13,10.0,NNE,5.8,-,N/A,,Clear,20,2013-01-25 03:15:00
8:35 PM,41.0,12.2,31,30.13,10.0,NNE,3.5,-,N/A,,Clear,20,2013-01-25 03:35:00
8:55 PM,41.0,14.0,33,30.13,10.0,NNE,3.5,-,N/A,,Clear,30,2013-01-25 03:55:00
9:15 PM,41.0,14.0,33,30.13,10.0,Calm,Calm,-,N/A,,Clear,0,2013-01-25 04:15:00
9:35 PM,33.8,14.0,44,30.15,10.0,Calm,Calm,-,N/A,,Clear,0,2013-01-25 04:35:00
9:55 PM,39.2,14.0,36,30.15,10.0,East,3.5,-,N/A,,Clear,80,2013-01-25 04:55:00
10:15 PM,35.6,14.0,41,30.15,10.0,SE,4.6,-,N/A,,Clear,130,2013-01-25 05:15:00
10:35 PM,32.0,14.0,48,30.16,10.0,ESE,6.9,-,N/A,,Clear,120,2013-01-25 05:35:00
10:55 PM,32.0,17.6,55,30.16,10.0,South,6.9,-,N/A,,Clear,170,2013-01-25 05:55:00
11:15 PM,30.2,17.6,60,30.16,10.0,South,6.9,-,N/A,,Clear,190,2013-01-25 06:15:00
11:34 PM,30.2,19.4,64,30.16,10.0,South,5.8,-,N/A,,Clear,190,2013-01-25 06:34:00
11:55 PM,32.0,19.4,60,30.14,10.0,South,8.1,-,N/A,,Clear,170,2013-01-25 06:55:00